Hourly Data Report for October 03, 2015

All times are specified in Local Standard Time (LST). Add 1 hour to adjust for Daylight Saving Time where and when it is observed.

PENTICTON A
BRITISH COLUMBIA

49°27'45.000" N
119°36'08.000" W
344.40 m
1126146
71889
YYF

Download Data

Hourly Data (October 2015)
Hourly Data Report for October 3, 2015
Temp Definition
°C
Dew Point Temp Definition
°C
Rel Hum Definition
%
Wind Dir Definition
10's deg

Wind Spd Definition
km/h
Visibility Definition
km
Stn Press Definition
kPa
Hmdx Definition


Wind Chill Definition


Weather Definition


TIME
00:00 Legend Double Dagger 11.5 6.3 70 36 26 24.1 97.69     LegendNANA
01:00 Legend Double Dagger 11.8 5.0 63 36 18 24.1 97.75     Cloudy
02:00 Legend Double Dagger 12.3 4.8 60 34 23 24.1 97.79     LegendNANA
03:00 Legend Double Dagger 12.3 4.3 58 35 26 24.1 97.82     LegendNANA
04:00 Legend Double Dagger 12.1 4.4 59 34 33 24.1 97.86     Cloudy
05:00 Legend Double Dagger 12.0 4.3 59 33 22 24.1 97.96     LegendNANA
06:00 Legend Double Dagger 12.5 4.0 56 33 25 24.1 98.01     LegendNANA
07:00 Legend Double Dagger 12.8 4.0 55 34 23 24.1 98.07     Mostly Cloudy
08:00 Legend Double Dagger 13.2 4.7 56 36 22 24.1 98.13     LegendNANA
09:00 Legend Double Dagger 13.2 5.4 59 2 17 24.1 98.15     LegendNANA
10:00 Legend Double Dagger 13.5 4.7 55 1 26 24.1 98.16     Mostly Cloudy
11:00 Legend Double Dagger 13.8 4.5 53 36 24 24.1 98.15     LegendNANA
12:00 Legend Double Dagger 15.3 4.7 49 1 23 24.1 98.13     LegendNANA
13:00 Legend Double Dagger 15.1 4.6 49 36 31 24.1 98.12     Mostly Cloudy
14:00 Legend Double Dagger 16.5 4.6 45 36 27 24.1 98.08     LegendNANA
15:00 Legend Double Dagger 16.9 5.3 46 1 23 24.1 98.05     LegendNANA
16:00 Legend Double Dagger 16.3 4.1 44 35 24 24.1 98.01     Mainly Clear
17:00 Legend Double Dagger 14.4 4.2 50 33 14 24.1 98.02     LegendNANA
18:00 Legend Double Dagger 12.3 6.2 66 1 14 24.1 98.05     LegendNANA
19:00 Legend Double Dagger 12.9 5.1 59 5 16 24.1 98.09     Clear
20:00 Legend Double Dagger 11.9 4.7 61 2 9 24.1 98.14     LegendNANA
21:00 Legend Double Dagger 11.5 4.5 62 5 17 24.1 98.12     LegendNANA
22:00 Legend Double Dagger 10.0 4.0 66 1 9 24.1 98.10     Clear
23:00 Legend Double Dagger 8.2 3.5 72 36 13 24.1 98.09     LegendNANA

Notes on Data Quality.

Legend

  • E = Estimated
  • M = Missing
  • NA = Not Available
  • ‡ = Partner data that is not subject to review by the National Climate Archives
Date modified: